CW1890 Weather Reports


Display with metric or nautical units.
time (UTC)temp
F
wind
direction
speed
MPH
gust
MPH
rain 1hr
in
rain 24hr
in
rain mn
in
humidity
%
barometer
mb
20201028140102 0 0.0 0.0 0.00 0.00 0.00 1008.2
20201028134553 0 0.0 0.0 0.00 0.00 0.00 1008.0
20201028133050 0 0.0 0.0 0.00 0.00 0.00 1007.7
20201028131526 0 0.0 0.0 0.00 0.00 0.00 1007.0
20201028130053 0 0.0 0.0 0.00 0.00 0.00 1006.7
20201028124610 0 0.0 0.0 0.00 0.00 0.00 1006.6
20201028123145 0 0.0 0.0 0.00 0.00 0.00 1006.5
20201028121531 0 0.0 0.0 0.00 0.00 0.00 1006.8
20201028120056 0 0.0 0.0 0.00 0.00 0.00 1007.1
20201028114538 32 228 3.0 7.0 0.00 0.00 0.00 70 1007.4
20201028113051 32 211 3.0 7.0 0.00 0.00 0.00 71 1007.5
20201028111532 32 214 1.0 6.0 0.00 0.00 0.00 71 1007.5
20201028110047 32 218 2.0 5.0 0.00 0.00 0.00 71 1007.3
20201028104557 32 227 4.0 9.0 0.00 0.00 0.00 71 1007.1
20201028103024 32 221 2.0 7.0 0.00 0.00 0.00 70 1006.4
20201028101516 32 205 1.0 7.0 0.00 0.00 0.00 70 1006.4
20201028100024 31 219 2.0 5.0 0.00 0.00 0.00 70 1006.5
20201028094533 31 221 0.0 4.0 0.00 0.00 0.00 70 1006.4
20201028093134 31 224 2.0 6.0 0.00 0.00 0.00 70 1006.5
20201028091702 31 200 1.0 6.0 0.00 0.00 0.00 70 1006.3
20201028090257 31 233 3.0 6.0 0.00 0.00 0.00 70 1006.7
20201028084625 31 223 3.0 5.0 0.00 0.00 0.00 70 1006.5
20201028083222 31 244 1.0 5.0 0.00 0.00 0.00 70 1006.6
20201028081714 30 220 2.0 5.0 0.00 0.00 0.00 70 1006.4
20201028080148 30 228 3.0 7.0 0.00 0.00 0.00 70 1006.6
20201028074708 30 219 1.0 7.0 0.00 0.00 0.00 70 1006.3
20201028073154 30 221 2.0 6.0 0.00 0.00 0.00 70 1006.4
20201028071619 29 225 2.0 7.0 0.00 0.00 0.00 71 1006.2
20201028070157 29 232 2.0 7.0 0.00 0.00 0.00 71 1006.3
20201028064758 29 202 4.0 8.0 0.00 0.00 0.00 71 1006.1
20201028063226 29 242 3.0 8.0 0.00 0.00 0.00 71 1005.8
20201028061610 29 229 2.0 8.0 0.00 0.00 0.00 71 1005.8
20201028060127 29 224 4.0 9.0 0.00 0.00 0.00 71 1005.8
20201028054620 28 206 4.0 9.0 0.00 0.00 0.00 71 1005.7
20201028053129 28 196 4.0 11.0 0.00 0.00 0.00 71 1005.4
20201028051547 28 211 3.0 8.0 0.00 0.00 0.00 71 1005.5
20201028050023 28 202 6.0 12.0 0.00 0.00 0.00 72 1005.6
20201028044624 28 209 5.0 11.0 0.00 0.00 0.00 72 1005.7
20201028043120 28 205 4.0 13.0 0.00 0.00 0.00 72 1005.8
20201028041620 28 217 5.0 11.0 0.00 0.00 0.00 72 1005.8
20201028040105 28 213 4.0 10.0 0.00 0.00 0.00 73 1005.7
20201028034601 28 220 5.0 17.0 0.00 0.00 0.00 73 1005.8
20201028033055 28 221 5.0 11.0 0.00 0.00 0.00 74 1005.8
20201028031621 28 191 4.0 12.0 0.00 0.00 0.00 75 1005.9
20201028030053 28 199 6.0 14.0 0.00 0.00 0.00 77 1005.9
20201028024546 28 215 5.0 14.0 0.00 0.00 0.00 78 1006.1
20201028023115 28 210 7.0 17.0 0.00 0.00 0.00 80 1006.2
20201028021555 29 206 4.0 12.0 0.00 0.00 0.00 80 1006.3
20201028020103 28 198 5.0 17.0 0.00 0.00 0.00 80 1006.3
20201028014529 28 208 6.0 17.0 0.00 0.00 0.00 79 1006.5
20201028013038 29 233 9.0 20.0 0.00 0.00 0.00 75 1006.5
20201028011555 30 188 7.0 22.0 0.00 0.00 0.00 69 1006.5
20201028010044 30 227 9.0 18.0 0.00 0.00 0.00 69 1006.7
20201028004532 31 205 6.0 25.0 0.00 0.00 0.00 66 1006.8
20201028003045 30 213 9.0 22.0 0.00 0.00 0.00 62 1006.6
20201028001526 30 204 8.0 17.0 0.00 0.00 0.00 61 1006.4
20201028000159 30 200 6.0 13.0 0.00 0.00 0.00 60 1006.4
20201027234642 30 202 7.0 18.0 0.00 0.00 0.00 59 1006.8
20201027233115 30 199 7.0 19.0 0.00 0.00 0.00 59 1007.0
20201027231621 30 174 8.0 21.0 0.00 0.00 0.00 59 1007.3
20201027230130 30 179 6.0 20.0 0.00 0.00 0.00 60 1007.7
20201027224613 30 172 7.0 16.0 0.00 0.00 0.00 62 1008.1
20201027223050 29 181 4.0 18.0 0.00 0.00 0.00 67 1008.2
20201027221653 29 187 5.0 16.0 0.00 0.00 0.00 71 1008.3
20201027220103 29 171 7.0 17.0 0.00 0.00 0.00 71 1008.5
20201027214633 29 173 8.0 21.0 0.00 0.00 0.00 66 1009.1
20201027213029 30 205 5.0 14.0 0.00 0.00 0.00 64 1009.4
20201027211524 29 178 6.0 14.0 0.00 0.00 0.00 65 1009.6
20201027210026 29 186 8.0 16.0 0.00 0.00 0.00 63 1010.0
20201027204519 29 186 8.0 16.0 0.00 0.00 0.00 59 1010.3
20201027203018 29 213 5.0 12.0 0.00 0.00 0.00 63 1010.5
20201027201517 30 211 7.0 17.0 0.00 0.00 0.00 57 1010.9
20201027200145 30 199 6.0 16.0 0.00 0.00 0.00 56 1010.9
20201027194656 30 198 8.0 16.0 0.00 0.00 0.00 56 1011.6
20201027193115 29 215 8.0 17.0 0.00 0.00 0.00 56 1011.8
20201027191650 29 209 7.0 19.0 0.00 0.00 0.00 56 1012.1
20201027190054 29 184 8.0 16.0 0.00 0.00 0.00 57 1012.2
20201027184633 28 202 5.0 17.0 0.00 0.00 0.00 58 1012.5
20201027183132 28 228 6.0 18.0 0.00 0.00 0.00 59 1012.9
20201027181620 27 182 5.0 16.0 0.00 0.00 0.00 60 1013.2
20201027180053 27 173 8.0 16.0 0.00 0.00 0.00 61 1013.5
20201027174545 26 192 5.0 13.0 0.00 0.00 0.00 63 1013.7
20201027173024 25 207 7.0 17.0 0.00 0.00 0.00 65 1014.0
20201027171720 24 186 7.0 14.0 0.00 0.00 0.00 66 1014.2
20201027170148 24 213 7.0 13.0 0.00 0.00 0.00 67 1014.6
20201027164608 23 224 4.0 15.0 0.00 0.00 0.00 69 1014.9
20201027163104 22 223 7.0 18.0 0.00 0.00 0.00 70 1015.3
20201027161559 22 209 5.0 17.0 0.00 0.00 0.00 72 1015.5
20201027160315 21 205 7.0 15.0 0.00 0.00 0.00 74 1015.6
20201027154543 20 196 7.0 18.0 0.00 0.00 0.00 75 1015.8
20201027153046 20 202 7.0 21.0 0.00 0.00 0.00 75 1016.1
20201027151532 19 189 4.0 18.0 0.00 0.00 0.00 76 1016.2
20201027150027 19 206 6.0 17.0 0.00 0.00 0.00 76 1016.7
20201027144516 19 214 4.0 19.0 0.00 0.00 0.00 77 1016.9
20201027143022 18 196 5.0 15.0 0.00 0.00 0.00 77 1017.1
20201027141528 18 214 7.0 14.0 0.00 0.00 0.00 78 1017.3